Regional Weather Roundup
Issued by NWS

Home | Current Version | Previous Version | Text Only | Print | Product List | Glossary Off
Versions: 1 2 3 4 5 6 7 8 9 10 11 12 13 14 15 16 17 18 19 20 21 22 23 24 25 26 27 28 29 30 31 32 33 34 35 36 37 38 39 40 41 42 43 44 45 46 47 48 49 50

000
ASUS43 KFSD 052102
RWRSD

WEATHER ROUNDUP FOR SOUTH DAKOTA
NATIONAL WEATHER SERVICE SIOUX FALLS SD
400 PM CDT TUE MAY 05 2015

NOTE: "FAIR" INDICATES FEW OR NO CLOUDS BELOW 12,000 FEET WITH NO
SIGNIFICANT WEATHER AND/OR OBSTRUCTIONS TO VISIBILITY.


SDZ001>005-009-010-012>017-052200-
NORTHWEST AND NORTH CENTRAL SOUTH DAKOTA

CITY           SKY/WX    TMP DP  RH WIND       PRES   REMARKS
BUFFALO          N/A     68  49  50 SE30G39   29.79F
FAITH            N/A     64  49  57 SE23G31   29.91F
MOBRIDGE       PTSUNNY   79  44  28 S21G28    29.90F
$$

SDZ012>016-024>037-041>051-057-063-072>074-052200-
SOUTHWEST AND SOUTH CENTRAL SOUTH DAKOTA

CITY           SKY/WX    TMP DP  RH WIND       PRES   REMARKS
RAPID CTY ARPT CLOUDY    62  50  64 S15       29.90F
PIERRE         CLOUDY    68  52  56 SE16      29.93F
CUSTER         CLOUDY    50  44  80 VRB7      29.95F
PHILIP         CLOUDY    66  53  63 SE15      29.91F
PINE RIDGE     CLOUDY    62  49  62 SE13G18   29.92F
WINNER         LGT RAIN  62  54  74 SE14      29.97F
$$

SDZ004>011-016>023-039-040-052200-
NORTHEAST SOUTH DAKOTA

CITY           SKY/WX    TMP DP  RH WIND       PRES   REMARKS
ABERDEEN       SUNNY     79  43  27 S18G31    29.96F
WATERTOWN      PTSUNNY   71  52  50 SE16G28   30.02F
BROOKINGS      CLOUDY    66  55  68 SE18G24   30.04F
SISSETON         N/A     73  52  47 S25G35    30.00F
$$

SDZ017-020-022-023-036>040-048>070-052200-
SOUTHEAST SOUTH DAKOTA

CITY           SKY/WX    TMP DP  RH WIND       PRES   REMARKS
SIOUX FALLS    CLOUDY    68  56  65 SE14      30.02F
HURON          PTSUNNY   71  50  47 SE14G22   29.98F
MITCHELL       LGT RAIN  67  58  72 S17       30.00F
YANKTON        CLOUDY    68  57  68 E7        29.99F
$$

ABBREVIATIONS USED IN REMARKS
   TC - TEMPERATURE IN CELSIUS
  WCI - WIND CHILL INDEX
   HX - HEAT INDEX
  VSB - VISIBILITY



USA.gov is the U.S. government's official web portal to all federal, state and local government web resources and services.